Showing default

CENTISPACE-1 S9, 62578

Orbit data source: Space-Track

CENTISPACE-1 S9, 62578 is a payload satellite owned by Centispace (CN) in LEO that was launched on Mon, 13 Jan 2025 UTC via a JIELONG-3 launch vehicle from the Yellow Sea Launch Area, China (YSLA). Payload-class satellites include a variety of spacecraft equipped with specific instruments for various scientific and technological missions. These include communications satellites like Starlink; space stations such as the ISS; scientific satellites like the Hubble; Earth observation satellites from companies like Planet Labs, Umbra, and HawkEye 360; GPS; miniature CubeSats for education and research; and military/defense satellites.

Loading next visibility...
Identifier
62578, 2025-007D
Orbit
LEO
Country
Flag of CNCN / PRC
Related business
Manufacturer
DFH Shenzhen
Mission
Operational Commercial Nav/Com
Bus & Motor
WK01, Unknown motor
Mass
140 kg wet, 140 kg dry
Launch date (UTC)
2025-01-13 (8 months ago)
Launch vehicle
JIELONG-3
Launch site
Yellow Sea Launch Area, China (YSLA)
Object type
Payload
Rocket body
Debris
Shape & HBR
Box + 2 Pan, 1.0 m
Radar Cross Section
0.833 m², Medium (>0.1 m² and < 1m²)

Expand to show TLE details & history
Last TLE update: 22 hours ago

TLE from 22 hours ago
0 CENTISPACE-1 S9
1 62578U 25007D   25257.52609292  .00000314  00000-0  12943-3 0  9998
2 62578  54.9811 218.5054 0064511   3.9945 356.1544 14.47509821 35940
Epoch: 2025-09-14T12:37Z
TLE epoch observation values (Epoch: 2025-09-14T12:37:34.428Z)
Latitude
0.00001°
Longitude
35.36812°
Altitude
689.072 km
Speed
7.537 km/s
True Right ascension
14h 34m 01s
True Declination
0° 00' 00"
Sunlit
Object was in daylight at epoch
Visualization orbit readout
Latitude
Unknown
Longitude
Unknown
Altitude
Unknown
Speed
Unknown
Apparent Right ascension
Unknown
Apparent Declination
Unknown
Sunlit
N/A
Visualization observer readout
Local Sidereal Time
03:09:48
Azimuth
Unknown
Elevation
Unknown
Doppler factor
Unknown
Orbital elements
Apogee altitude
779.64 km
Perigee altitude
687.881 km
Semi-major axis
7,111.897 km
Eccentricity
0.00645
Inclination
54.9811°
RAAN
218.5054°
Arg. of periapsis
3.9945°
True anomaly
356.10442°
Mean anomaly
356.1544°
Eccentric anomaly
356.12945°
Mean motion
3.6188 °/min
Orbital period
99.48 mins
BSTAR
0.00012943
Loading maneuver chart data...
Computing Atmospheric mass density...
Loading historical data...
Loading historical data...
Loading historical data...
Loading historical data...
Loading historical data...
Loading historical data...
Loading historical data...

Documentation

Showing up to 5 results
|